Regional Weather Roundup
Issued by NWS

Home | Current Version | Previous Version | Text Only | Print | Product List | Glossary On
Versions: 1 2 3 4 5 6 7 8 9 10 11 12 13 14 15 16 17 18 19 20 21 22 23 24 25 26 27 28 29 30 31 32 33 34 35 36 37 38 39 40 41 42 43 44 45 46 47 48 49 50
000
ASUS44 KOUN 210700
RWROK

WEATHER ROUNDUP FOR OKLAHOMA
NATIONAL WEATHER SERVICE NORMAN OK
100 AM CST SUN JAN 21 2018

NOTE: "FAIR" INDICATES FEW OR NO CLOUDS BELOW 12,000 FEET WITH NO
      SIGNIFICANT WEATHER AND/OR OBSTRUCTIONS TO VISIBILITY.

OKZ001>007-009>012-014-015-017-210800-
NORTHWEST OKLAHOMA AND THE PANHANDLE

CITY           SKY/WX    TMP DP  RH WIND       PRES   REMARKS
GAGE           CLOUDY    53  22  29 S20G29    29.68S
GUYMON         CLOUDY    45  16  31 S10       29.65S
$$

OKZ016-021>023-033>039-044-045-210800-
SOUTHWEST OKLAHOMA

CITY           SKY/WX    TMP DP  RH WIND       PRES   REMARKS
LAWTON/REGL    CLEAR     54  49  83 S12       29.81R
LAWTON/FT SILL CLEAR     54  54 100 S16       29.79S
FREDERICK      CLEAR     46  33  60 S9        29.77R
CLINTON        CLEAR     49  31  49 S16       29.75F
HOBART         CLEAR     52  34  50 S20       29.77S
ALTUS AFB      CLEAR     39  27  61 SE8       29.77S WCI  33
$$

OKZ018>020-024>031-210800-
CENTRAL OKLAHOMA

CITY           SKY/WX    TMP DP  RH WIND       PRES   REMARKS
OKLAHOMA CITY  CLEAR     53  51  93 S16       29.79S
OKC/WILEY POST CLEAR     55  52  89 S17       29.79R
OKC/TINKER AFB CLEAR     55  54  97 S18G24    29.80S
STILLWATER     CLEAR     55  51  86 S15       29.78R
GUTHRIE        CLEAR     57  52  83 S18G26    29.77S
$$

OKZ008-013-054>072-210800-
NORTHEAST OKLAHOMA

CITY           SKY/WX    TMP DP  RH WIND       PRES   REMARKS
TULSA          CLOUDY    60  54  80 S17       29.81S
TULSA/JONES    MOCLDY    59  53  80 S15       29.83R
PONCA CITY     CLEAR     56  50  80 S16G26    29.75S
BARTLESVILLE   CLEAR     53  50  89 S7        29.81F
MUSKOGEE       MOCLDY    58  53  84 S12       29.88F
$$

OKZ032-040>043-046>053-073>077-210800-
SOUTH CENTRAL/SOUTHEAST OKLAHOMA

CITY           SKY/WX    TMP DP  RH WIND       PRES   REMARKS
MCALESTER      CLOUDY    62  55  77 S15G26    29.89F
$$





USA.gov is the U.S. government's official web portal to all federal, state and local government web resources and services.